Change the Weather History Date:

Tuesday, November 5, 2013

  Actual Average (KLOZ) Record (KLOZ)
Temperature  
Mean Temperature 58 °F 51 °F  
Max Temperature 66 °F 63 °F 79 °F (1975)
Min Temperature 50 °F 40 °F 14 °F (1991)
Degree Days  
Heating Degree Days 7 14  
Month to date heating degree days 67  
Since 1 July heating degree days 373  
Cooling Degree Days 0 0  
Month to date cooling degree days 0  
Growing Degree Days 8 (Base 50)    
Moisture  
Dew Point 34 °F    
Average Humidity 45    
Maximum Humidity 62    
Minimum Humidity 24    
Precipitation  
Precipitation 0.00 in 0.11 in 1.37 in (1988)
Month to date precipitation 0.58  
Sea Level Pressure  
Sea Level Pressure 30.35 in    
Wind  
Wind Speed 4 mph (SSE)    
Max Wind Speed 9 mph    
Max Gust Speed -    
Visibility 10 miles    
Events      
T = Trace of Precipitation, MM = Missing Value Source: NWS Daily Summary

Daily Weather History Graph

Daily Weather History Graph

Search for Another Location

Airport or City:

Trip Planner

Search our weather history database for the weather conditions in past years. The results will help you decide how hot, cold, wet, or windy it might be!

Date:

Astronomy

Nov. 05, 2013 Rise Set
Actual Time 7:06 AM EST 5:34 PM EST
Civil Twilight 6:39 AM EST 6:01 PM EST
Nautical Twilight 6:08 AM EST 6:32 PM EST
Astronomical Twilight 5:37 AM EST 7:03 PM EST
Moon 9:19 AM EST (11/5) 7:36 PM EST (11/5)
Length of Visible Light 11h 22m
Length of Day
10h 27m
Waxing Crescent, 6% of the Moon is Illuminated
Nov 5
Waxing Crescent
Nov 10
First Quarter
Nov 17
Full
Nov 25
Last Quarter
Dec 2
New

Hourly Weather History & Observations

Time (EST) Temp. Dew Point Humidity Pressure Visibility Wind Dir Wind Speed Gust Speed Precip Events Conditions
12:15 AM 53.6 °F 35.6 °F 51% 30.36 in 10.0 mi South 4.6 mph - N/A   Clear
12:35 AM 53.6 °F 35.6 °F 51% 30.35 in 10.0 mi SSE 4.6 mph - N/A   Clear
12:55 AM 53.6 °F 33.8 °F 47% 30.36 in 10.0 mi SSE 4.6 mph - N/A   Clear
1:15 AM 51.8 °F 33.8 °F 50% 30.36 in 10.0 mi South 5.8 mph - N/A   Clear
1:35 AM 53.6 °F 33.8 °F 47% 30.36 in 10.0 mi South 3.5 mph - N/A   Clear
1:55 AM 51.8 °F 35.6 °F 54% 30.38 in 10.0 mi SW 3.5 mph - N/A   Clear
2:15 AM 51.8 °F 33.8 °F 50% 30.37 in 10.0 mi South 4.6 mph - N/A   Clear
2:35 AM 51.8 °F 35.6 °F 54% 30.37 in 10.0 mi South 4.6 mph - N/A   Clear
2:55 AM 51.8 °F 35.6 °F 54% 30.37 in 10.0 mi South 4.6 mph - N/A   Clear
3:15 AM 50.0 °F 35.6 °F 58% 30.37 in 10.0 mi SSE 3.5 mph - N/A   Clear
3:35 AM 50.0 °F 35.6 °F 58% 30.38 in 10.0 mi South 3.5 mph - N/A   Clear
3:55 AM 51.8 °F 35.6 °F 54% 30.37 in 10.0 mi South 3.5 mph - N/A   Clear
4:15 AM 50.0 °F 35.6 °F 58% 30.38 in 10.0 mi SSW 4.6 mph - N/A   Clear
4:35 AM 50.0 °F 35.6 °F 58% 30.38 in 10.0 mi South 4.6 mph - N/A   Clear
4:55 AM 51.8 °F 35.6 °F 54% 30.38 in 10.0 mi South 4.6 mph - N/A   Clear
5:15 AM 51.8 °F 35.6 °F 54% 30.39 in 10.0 mi SSE 4.6 mph - N/A   Clear
5:35 AM 50.0 °F 35.6 °F 58% 30.38 in 10.0 mi SSE 5.8 mph - N/A   Clear
5:55 AM 50.0 °F 33.8 °F 54% 30.39 in 10.0 mi South 4.6 mph - N/A   Clear
6:15 AM 50.0 °F 33.8 °F 54% 30.38 in 10.0 mi SSE 4.6 mph - N/A   Clear
6:35 AM 50.0 °F 33.8 °F 54% 30.38 in 10.0 mi SSE 6.9 mph - N/A   Clear
6:55 AM 50.0 °F 35.6 °F 58% 30.38 in 10.0 mi SSE 5.8 mph - N/A   Clear
7:15 AM 50.0 °F 35.6 °F 58% 30.38 in 10.0 mi SSE 4.6 mph - N/A   Clear
7:35 AM 50.0 °F 35.6 °F 58% 30.39 in 10.0 mi SSE 6.9 mph - N/A   Clear
7:55 AM 50.0 °F 35.6 °F 58% 30.40 in 10.0 mi Calm Calm - N/A   Clear
8:15 AM 50.0 °F 35.6 °F 58% 30.41 in 10.0 mi Calm Calm - N/A   Clear
8:35 AM 50.0 °F 37.4 °F 62% 30.42 in 10.0 mi Calm Calm - N/A   Clear
8:55 AM 51.8 °F 37.4 °F 58% 30.43 in 10.0 mi Calm Calm - N/A   Clear
9:15 AM 51.8 °F 37.4 °F 58% 30.43 in 10.0 mi Calm Calm - N/A   Clear
9:35 AM 53.6 °F 37.4 °F 54% 30.43 in 10.0 mi SE 3.5 mph - N/A   Clear
9:55 AM 55.4 °F 35.6 °F 47% 30.42 in 10.0 mi SE 9.2 mph - N/A   Clear
10:15 AM 57.2 °F 33.8 °F 41% 30.42 in 10.0 mi SE 5.8 mph - N/A   Clear
10:35 AM 57.2 °F 33.8 °F 41% 30.42 in 10.0 mi South 4.6 mph - N/A   Clear
10:55 AM 57.2 °F 32.0 °F 38% 30.42 in 10.0 mi South 5.8 mph - N/A   Clear
11:15 AM 59.0 °F 32.0 °F 36% 30.43 in 10.0 mi South 4.6 mph - N/A   Clear
11:35 AM 59.0 °F 32.0 °F 36% 30.42 in 10.0 mi SSE 6.9 mph - N/A   Clear
11:55 AM 59.0 °F 32.0 °F 36% 30.41 in 10.0 mi South 5.8 mph - N/A   Clear
12:15 PM 60.8 °F 32.0 °F 34% 30.41 in 10.0 mi SSW 3.5 mph - N/A   Clear
12:35 PM 60.8 °F 32.0 °F 34% 30.40 in 10.0 mi SW 3.5 mph - N/A   Clear
12:55 PM 62.6 °F 32.0 °F 32% 30.39 in 10.0 mi SW 4.6 mph - N/A   Clear
1:15 PM 62.6 °F 32.0 °F 32% 30.38 in 10.0 mi SSW 6.9 mph - N/A   Clear
1:35 PM 64.4 °F 30.2 °F 28% 30.37 in 10.0 mi SE 4.6 mph - N/A   Clear
1:55 PM 64.4 °F 30.2 °F 28% 30.36 in 10.0 mi WSW 4.6 mph - N/A   Clear
2:15 PM 66.2 °F 32.0 °F 28% 30.35 in 10.0 mi SSW 5.8 mph - N/A   Clear
2:35 PM 66.2 °F 30.2 °F 26% 30.35 in 10.0 mi SSE 4.6 mph - N/A   Clear
2:55 PM 64.4 °F 30.2 °F 28% 30.33 in 10.0 mi SSE 4.6 mph - N/A   Clear
3:15 PM 66.2 °F 30.2 °F 26% 30.33 in 10.0 mi Calm Calm - N/A   Clear
3:35 PM 66.2 °F 28.4 °F 24% 30.32 in 10.0 mi South 6.9 mph - N/A   Clear
3:55 PM 66.2 °F 28.4 °F 24% 30.32 in 10.0 mi South 6.9 mph - N/A   Clear
4:15 PM 64.4 °F 28.4 °F 26% 30.32 in 10.0 mi SSE 6.9 mph - N/A   Clear
4:35 PM 64.4 °F 32.0 °F 30% 30.31 in 10.0 mi Calm Calm - N/A   Clear
4:55 PM 62.6 °F 32.0 °F 32% 30.31 in 10.0 mi SSW 3.5 mph - N/A   Clear
5:15 PM 62.6 °F 32.0 °F 32% 30.31 in 10.0 mi SSW 3.5 mph - N/A   Clear
5:35 PM 62.6 °F 32.0 °F 32% 30.30 in 10.0 mi Calm Calm - N/A   Clear
5:55 PM 60.8 °F 32.0 °F 34% 30.30 in 10.0 mi Calm Calm - N/A   Clear
6:15 PM 59.0 °F 32.0 °F 36% 30.30 in 10.0 mi SE 3.5 mph - N/A   Clear
6:35 PM 55.4 °F 35.6 °F 47% 30.30 in 10.0 mi SE 3.5 mph - N/A   Clear
6:55 PM 57.2 °F 33.8 °F 41% 30.30 in 10.0 mi SE 4.6 mph - N/A   Clear
7:15 PM 57.2 °F 33.8 °F 41% 30.30 in 10.0 mi SE 5.8 mph - N/A   Clear
7:35 PM 53.6 °F 35.6 °F 51% 30.29 in 10.0 mi SE 5.8 mph - N/A   Clear
7:55 PM 53.6 °F 33.8 °F 47% 30.29 in 10.0 mi SE 5.8 mph - N/A   Clear
8:15 PM 53.6 °F 33.8 °F 47% 30.28 in 10.0 mi SE 5.8 mph - N/A   Clear
8:35 PM 53.6 °F 33.8 °F 47% 30.28 in 10.0 mi SE 4.6 mph - N/A   Clear
8:55 PM 53.6 °F 33.8 °F 47% 30.28 in 10.0 mi SE 3.5 mph - N/A   Clear
9:15 PM 53.6 °F 32.0 °F 44% 30.28 in 10.0 mi SSE 3.5 mph - N/A   Clear
9:35 PM 51.8 °F 33.8 °F 50% 30.28 in 10.0 mi SE 3.5 mph - N/A   Clear
9:55 PM 55.4 °F 32.0 °F 41% 30.28 in 10.0 mi SSE 6.9 mph - N/A   Clear
10:15 PM 55.4 °F 32.0 °F 41% 30.28 in 10.0 mi SSE 5.8 mph - N/A   Clear
10:35 PM 55.4 °F 33.8 °F 44% 30.28 in 10.0 mi SSE 5.8 mph - N/A   Clear
10:55 PM 55.4 °F 35.6 °F 47% 30.28 in 10.0 mi SSE 5.8 mph - N/A   Clear
11:15 PM 55.4 °F 35.6 °F 47% 30.28 in 10.0 mi SSE 5.8 mph - N/A   Clear
11:35 PM 55.4 °F 37.4 °F 51% 30.27 in 10.0 mi SSE 6.9 mph - N/A   Clear
11:55 PM 55.4 °F 37.4 °F 51% 30.26 in 10.0 mi SSE 6.9 mph - N/A   Clear